{"data":{"norad_id":48079,"intl_designator":"2021-026A","name":"GAOFEN-12 02","alt_names":[],"object_type":"PAYLOAD","status":"ACTIVE","operator":null,"country":"PRC","launch_date":"2021-03-30","launch_site_code":"JSC","launch_vehicle":null,"mission":null,"orbit_class":"UNKNOWN","rcs_meters":null,"size_class":null,"mass_kg":null,"dimensions":null,"purposes":["earth_obs"],"wikipedia_slug":null,"has_3d_model":false,"image_url":null,"decayed_at":null,"tle_current":{"epoch":"2026-05-25T05:50:35.138400Z","epoch_age_seconds":60907,"freshness":"FRESH","line1":"1 48079U 21026A   26145.24346225  .00000328  00000+0  49963-4 0  9992","line2":"2 48079  97.9921 143.5190 0003806 324.1459  35.9497 14.80274730278364","mean_motion":14.8027473,"eccentricity":0.0003806,"inclination_deg":97.9921,"raan_deg":143.519,"arg_perigee_deg":324.1459,"mean_anomaly_deg":35.9497,"bstar":4.9963e-5,"rev_number":27836,"period_min":97.279239509817,"perigee_km":625.79037007551,"apogee_km":631.12378948904,"semimajor_km":7006.5940797823,"source":"CELESTRAK","updated_at":"2026-05-25T13:38:12.833793Z"}}}